Theta_e
310 315 316 316 315 314 313 313 313 313 312 312 312 313 313 312 311 312 312 311 310 310 312 313 312 311 311 311 311 311 311 311 310 311 311 311 312 312 312 313 314 315 316 316 315 315 315 315 315 316 315 315 314 314 314 314 314 314 314 314 314 314 313 313 312 312 312 311 310 310 310 309 309 308 308 307 306 306 305 305 304 303 302 300 299 299
311 314 315 316 315 313 313 313 312 312 312 312 313 313 312 312 312 311 312 312 310 310 311 312 313 311 311 311 311 311 311 311 311 311 311 312 312 313 313 313 314 314 315 315 315 316 315 315 315 315 315 315 314 314 314 314 314 314 313 314 314 313 313 313 313 312 312 312 311 311 311 310 310 309 309 308 308 307 305 304 304 303 302 301 300 299
313 313 313 313 312 312 312 311 311 312 312 313 313 313 313 312 312 312 312 312 310 311 314 315 313 311 311 312 311 311 311 311 312 312 312 313 313 313 313 314 314 314 314 315 316 316 316 315 315 315 315 314 315 314 314 313 313 313 313 313 313 313 313 313 312 312 312 312 311 311 310 310 310 309 309 308 308 307 306 304 304 303 302 301 300 300
316 316 313 309 310 312 313 312 312 312 312 313 313 313 313 312 312 313 313 314 312 311 315 315 312 310 311 311 311 310 310 311 312 312 313 313 312 313 313 314 314 313 314 315 316 316 316 315 315 315 315 315 314 314 314 313 313 313 313 313 313 313 313 312 312 312 312 311 310 310 309 308 308 309 308 307 307 306 305 304 304 303 302 301 301 300
316 316 312 309 311 312 313 313 313 314 313 313 313 313 313 313 313 313 313 314 313 313 315 313 312 313 313 312 313 311 310 310 310 311 311 312 313 313 313 313 313 314 315 315 316 316 316 315 315 315 315 315 314 314 314 314 313 313 313 313 312 312 312 312 312 311 311 310 310 309 308 307 307 307 307 306 306 306 305 305 305 304 303 302 301 301
313 312 310 312 314 313 313 313 314 315 314 313 314 313 313 313 313 313 314 313 314 318 316 313 314 317 317 317 315 313 312 311 310 309 310 310 312 312 311 312 314 314 315 316 316 316 316 316 316 315 315 315 315 315 315 314 313 313 313 312 312 312 312 311 311 311 310 310 310 309 308 308 307 306 307 307 308 308 307 307 306 304 303 302 302 301
313 311 311 315 317 315 314 313 315 315 313 314 317 318 314 312 313 314 314 313 317 320 314 314 317 317 316 317 317 316 316 315 313 311 310 309 311 311 311 313 315 315 316 316 316 316 317 316 316 316 316 316 315 315 314 313 313 312 312 312 312 312 311 311 311 310 310 310 309 309 309 309 308 308 309 309 309 308 308 307 306 305 304 303 302 301
314 312 312 314 314 316 315 314 315 313 313 315 318 321 319 315 315 315 313 314 317 317 314 315 317 316 316 315 317 318 317 317 315 313 312 310 310 312 313 314 314 316 316 316 317 316 317 316 316 316 315 315 315 314 314 313 313 313 313 313 312 312 311 311 311 310 310 309 309 309 309 309 309 309 310 309 309 308 308 307 306 306 305 304 303 302
313 314 315 314 312 315 315 314 315 313 314 317 315 316 318 317 317 316 316 317 316 315 315 314 314 318 319 315 315 315 315 317 315 313 313 311 311 312 313 314 315 316 317 316 317 317 317 316 316 316 315 314 314 314 314 313 313 313 313 313 312 312 311 311 310 310 310 310 309 309 309 309 309 309 308 308 308 308 307 307 306 305 305 304 303 302
312 314 313 314 315 315 314 315 317 317 315 314 314 315 317 318 319 318 317 318 320 318 316 315 315 317 319 317 317 314 314 318 316 313 312 310 311 312 313 315 315 317 317 317 317 316 317 316 316 316 315 315 314 314 314 313 313 313 313 313 312 312 311 311 310 310 310 309 309 309 309 309 309 308 308 307 307 307 307 307 306 306 305 304 303 303
310 309 308 312 313 312 314 313 310 313 311 309 314 319 320 320 320 321 321 319 319 318 317 318 317 316 318 318 319 318 317 318 316 315 315 312 311 311 314 316 316 317 317 317 317 316 316 316 316 316 315 314 314 314 314 313 313 313 313 312 312 311 311 311 310 310 310 309 309 309 309 308 308 308 308 307 307 307 306 306 306 306 305 304 304 303
309 309 311 312 310 309 315 312 307 307 307 309 318 322 320 321 320 321 321 318 317 318 319 319 316 315 317 317 317 318 316 316 316 318 321 321 315 312 315 316 316 317 316 315 316 315 316 315 315 316 315 314 314 314 314 314 314 313 313 312 312 312 311 311 310 310 309 309 309 309 308 308 308 308 308 308 308 307 307 307 306 306 305 305 304 304
314 313 312 311 309 309 314 316 312 311 309 312 318 317 316 319 319 319 320 318 318 319 317 315 314 313 315 315 315 316 316 317 314 312 316 319 315 313 316 316 315 316 316 314 314 314 314 314 314 315 315 314 314 314 314 314 314 313 313 313 312 312 311 310 310 309 309 309 309 308 308 308 308 307 308 308 307 308 307 307 306 306 306 305 305 304
318 316 312 310 311 311 313 315 315 315 314 313 315 316 317 318 318 318 321 319 318 318 314 311 313 314 314 316 318 316 314 314 311 308 310 312 312 313 315 315 314 315 316 314 313 312 313 314 314 314 314 313 313 314 314 314 313 313 313 313 312 312 311 311 310 309 309 309 309 308 308 308 307 307 308 308 307 307 307 306 306 306 306 306 306 305
317 317 316 315 315 313 312 313 316 319 316 311 315 318 317 319 322 321 323 321 319 319 314 310 314 318 317 317 319 316 311 309 309 309 310 310 310 312 313 314 315 315 315 314 312 312 313 313 314 314 314 313 313 314 314 313 313 313 313 312 312 312 311 311 310 310 310 309 309 308 308 308 308 308 308 308 308 307 307 307 306 306 306 306 306 305
315 318 319 314 312 311 312 312 315 320 318 312 316 319 314 318 322 319 320 322 318 318 315 312 316 319 316 314 315 315 311 309 309 309 308 309 311 311 311 313 314 314 314 313 313 313 313 313 313 314 314 313 313 314 314 313 313 312 312 312 312 312 311 311 311 311 311 310 309 309 308 308 308 308 307 308 308 308 308 307 307 307 306 306 305 305
314 319 319 311 309 310 310 310 311 315 316 313 314 316 314 315 317 315 318 319 315 315 316 315 317 317 315 315 315 315 315 313 314 312 308 307 309 310 311 312 312 313 313 313 314 314 314 313 313 314 314 313 313 314 314 313 313 312 312 312 311 311 311 311 311 311 311 311 310 310 310 310 309 309 309 309 309 308 308 307 307 307 306 306 305 305
315 317 317 313 313 311 305 306 310 309 310 315 316 314 313 314 315 315 318 318 315 316 317 316 317 316 317 319 316 316 318 318 319 317 311 308 307 309 311 312 312 312 312 313 314 314 315 314 313 313 314 313 313 314 314 313 313 312 312 311 311 311 311 312 312 311 311 311 312 312 311 311 311 310 310 309 308 308 307 307 307 307 306 306 305 304
315 315 316 316 314 312 307 309 313 308 306 312 314 312 313 316 317 316 317 317 316 316 318 317 317 315 316 318 316 315 317 317 317 316 316 314 309 307 310 311 311 311 312 313 313 315 315 315 314 313 313 314 314 314 313 313 312 312 312 311 311 311 311 311 311 311 311 311 312 313 312 311 311 311 310 309 308 307 307 308 307 307 307 306 305 304
315 314 316 316 314 312 312 313 317 315 310 309 309 311 313 314 316 317 317 318 316 316 318 318 317 316 317 319 318 316 317 317 315 314 316 315 309 307 310 311 311 312 312 312 313 314 315 315 315 313 312 313 313 314 313 313 312 311 311 311 311 311 311 311 311 311 311 312 312 312 312 312 311 311 310 309 308 308 308 308 307 307 306 306 305 304
316 314 314 317 315 313 314 315 319 321 318 313 312 313 312 312 315 316 314 315 315 315 317 318 318 318 318 318 316 315 317 317 314 313 315 313 308 309 311 312 313 313 313 313 313 313 314 315 315 314 312 311 312 313 313 312 312 311 311 311 312 312 312 312 312 312 312 312 311 312 311 312 312 311 310 308 307 308 308 307 307 307 306 305 305 304
320 318 316 318 317 315 315 317 319 320 319 316 314 313 312 312 314 315 314 316 315 314 316 317 317 318 319 318 314 313 315 316 314 312 313 311 309 311 313 313 313 313 313 314 313 313 314 314 314 314 313 312 311 312 313 312 311 310 311 312 312 312 312 312 312 311 311 311 311 311 311 310 311 310 309 308 307 307 307 307 307 307 306 305 305 305
319 318 316 317 318 317 317 316 316 315 314 313 312 312 313 312 312 314 315 316 316 315 315 316 316 318 319 317 314 313 314 313 311 311 311 310 310 312 313 312 313 313 312 313 313 313 314 313 314 313 312 311 311 310 312 312 311 311 311 312 312 312 311 311 311 310 310 310 310 310 310 309 309 309 308 308 307 307 307 307 307 307 306 306 305 304
315 315 316 317 317 317 317 315 314 312 311 312 312 311 312 312 312 313 314 314 315 315 315 316 316 318 321 320 317 314 313 311 310 310 310 309 310 311 311 311 312 312 312 313 313 313 313 313 313 312 310 310 310 310 311 311 311 311 311 312 311 311 311 310 310 310 309 309 309 309 309 308 308 308 308 308 308 307 307 307 307 307 306 306 305 304
315 316 317 318 317 316 315 315 315 312 310 311 313 312 311 312 312 313 313 314 314 314 315 316 315 317 320 320 316 314 313 312 311 311 310 310 310 311 311 312 312 313 313 313 313 313 312 312 311 310 309 308 308 308 309 310 310 310 310 311 310 310 310 309 309 308 308 308 307 308 308 308 308 308 307 307 307 308 307 307 306 306 306 305 305 305
315 317 318 317 316 315 314 314 316 316 313 311 312 313 312 312 312 313 313 314 314 314 315 315 315 315 316 316 314 313 313 312 312 312 312 311 311 311 311 312 312 312 312 310 309 308 308 309 310 308 307 306 306 306 307 307 308 308 308 308 308 308 308 308 308 308 308 307 307 307 307 308 308 308 307 307 307 307 306 306 306 305 305 305 305 304
313 316 317 316 316 316 314 314 316 318 316 313 314 314 313 312 312 312 313 314 314 315 315 315 315 315 315 315 314 313 312 312 312 312 312 311 312 312 311 310 309 308 307 305 304 304 304 305 306 306 305 304 304 304 305 306 306 307 306 307 307 306 306 306 307 308 308 308 307 306 307 307 308 308 307 307 307 306 305 305 305 305 305 304 304 303
312 313 314 315 315 315 315 315 315 316 316 315 316 315 314 313 313 313 313 313 314 315 314 315 315 315 314 314 313 313 312 312 312 312 312 312 311 310 308 306 305 303 302 302 301 301 301 302 302 303 302 302 303 303 304 304 304 305 305 306 306 306 305 305 306 308 308 308 307 307 308 308 308 308 307 306 305 305 304 304 304 305 305 304 302 302
311 311 313 314 314 314 314 314 315 315 315 315 315 314 313 313 313 313 313 313 313 314 313 314 314 314 313 312 313 313 312 312 312 311 311 309 305 303 302 301 299 298 297 297 298 298 298 298 299 299 300 300 301 302 302 303 304 304 305 305 305 306 305 305 305 306 307 307 307 308 308 308 307 307 306 304 304 304 303 303 304 305 304 304 303 301
309 311 312 312 312 313 313 313 313 313 313 313 313 313 312 312 312 313 313 313 313 313 313 313 313 313 313 312 312 311 309 309 308 306 303 300 298 297 297 296 295 295 295 295 295 296 296 297 297 297 298 298 299 299 300 301 303 303 304 305 305 306 306 306 306 306 306 307 307 307 307 306 305 305 304 303 303 304 303 302 303 304 304 304 302 300
308 310 310 309 309 310 311 312 312 311 311 311 312 312 312 312 313 313 313 313 313 313 313 312 313 313 310 307 306 303 301 300 300 299 296 295 295 295 294 294 294 294 294 294 294 295 295 296 296 296 297 297 297 297 298 299 300 301 302 303 304 304 305 305 306 307 306 306 307 307 306 305 304 303 303 303 302 302 302 302 302 302 303 302 301 300
306 306 307 307 307 308 309 311 311 310 310 310 311 311 312 312 312 312 312 312 313 313 313 313 313 308 302 299 299 298 296 295 297 296 294 293 293 293 293 293 294 294 294 294 294 295 295 295 295 295 296 296 296 296 296 297 297 299 300 301 301 302 303 303 304 305 306 306 305 305 304 304 304 303 302 302 302 301 301 301 300 301 301 301 301 300
304 304 305 306 306 307 307 308 309 309 308 309 310 311 312 312 312 312 311 310 309 308 309 308 303 298 296 295 295 295 294 293 294 295 293 292 293 293 293 293 293 293 294 294 294 294 294 294 294 294 294 294 293 293 293 294 295 296 297 298 299 300 301 301 301 302 303 304 304 303 302 302 302 302 302 302 301 301 300 299 300 300 300 300 300 299
302 303 303 304 305 305 305 306 307 306 307 308 307 305 307 307 307 306 304 300 299 300 301 300 296 294 294 294 293 294 294 293 293 295 293 292 292 293 293 293 293 293 294 293 293 293 293 293 293 293 293 293 292 292 292 292 293 294 295 296 297 298 300 300 300 300 300 301 301 301 300 300 301 301 301 301 300 299 298 298 299 299 299 299 298 298
300 301 302 303 303 303 303 304 305 304 305 306 302 298 298 299 298 299 297 293 293 296 297 297 295 293 293 293 293 293 294 293 293 294 293 292 292 292 292 293 293 293 293 293 292 292 292 292 291 291 292 291 291 291 291 291 292 292 293 293 295 296 298 300 300 299 299 299 299 299 298 298 298 298 298 298 298 298 298 297 297 298 298 297 297 297
300 300 300 301 302 302 302 302 302 302 303 305 301 296 296 297 296 297 298 294 292 294 296 296 294 293 293 293 293 293 293 293 293 295 295 293 292 292 292 292 293 293 292 292 291 291 291 291 291 290 290 290 290 290 291 291 291 291 291 292 292 294 296 299 300 299 298 298 299 299 298 297 296 296 296 296 296 296 296 296 296 296 296 296 295 295
300 300 300 301 301 301 300 300 301 301 302 303 301 296 295 295 295 296 298 296 293 293 295 294 293 292 293 293 292 292 293 292 292 295 295 293 292 292 292 292 292 292 291 291 290 290 290 290 290 290 290 290 290 290 290 290 290 290 291 291 291 292 294 297 298 299 298 298 298 298 298 298 297 296 295 294 294 295 295 295 295 295 294 294 294 294
300 300 301 301 302 302 302 302 302 302 301 299 296 294 295 295 295 294 296 296 293 293 294 293 292 293 293 293 292 292 292 292 291 293 293 292 291 292 291 291 291 291 290 290 290 289 290 289 289 289 289 289 289 289 289 290 290 290 290 290 291 291 292 294 296 297 298 298 298 298 298 298 298 297 296 294 293 293 293 293 293 293 293 293 293 293
299 300 301 302 302 303 302 302 302 302 301 297 293 293 294 294 294 294 296 297 294 292 293 293 292 293 293 293 293 292 292 291 291 291 291 291 291 291 291 291 291 290 290 289 289 289 289 289 289 288 288 288 288 289 289 289 290 290 290 290 290 290 291 292 293 295 296 297 297 298 298 298 298 298 297 296 295 293 292 292 292 292 292 292 292 292
298 299 301 300 300 300 300 300 299 300 300 296 293 293 293 292 293 296 298 297 292 291 293 294 293 293 293 292 292 292 292 292 291 291 291 291 291 290 290 290 290 289 289 289 288 288 288 288 288 288 288 288 288 288 288 289 289 289 289 290 289 289 290 290 291 292 294 295 296 297 297 298 298 298 297 297 296 294 293 292 291 291 291 291 290 290
298 298 298 298 297 297 298 297 297 298 298 294 291 292 292 292 294 296 297 293 289 289 292 294 293 292 292 292 292 292 292 292 291 291 290 290 290 289 289 289 289 288 288 288 288 288 287 287 287 287 287 287 287 287 287 287 287 288 288 289 289 289 289 290 290 291 292 293 294 295 296 297 297 297 297 297 297 296 294 292 291 290 290 290 289 289
297 296 296 297 296 296 297 296 295 297 296 293 292 292 292 294 295 295 293 290 289 290 291 293 293 293 292 292 292 292 291 291 290 290 290 289 289 288 288 288 288 288 288 287 287 287 286 286 286 286 286 286 286 286 286 286 286 286 287 287 288 289 289 289 289 290 291 292 292 293 294 295 296 297 297 297 297 297 296 294 292 290 289 289 289 289
297 296 295 296 296 295 294 294 294 295 295 293 292 292 292 294 294 292 290 290 290 291 291 292 293 293 292 292 292 291 290 289 289 289 288 288 288 287 287 287 287 287 287 286 286 286 285 285 285 285 285 285 285 285 285 285 285 285 286 286 287 287 288 289 289 289 290 290 291 292 293 293 294 295 296 297 297 296 296 296 294 292 290 289 288 288
295 294 293 294 294 293 292 292 294 294 293 292 291 291 291 292 292 291 290 290 290 290 291 293 293 293 292 292 291 290 289 288 288 288 287 287 287 287 286 286 286 286 286 285 285 285 284 284 284 285 285 285 285 285 285 284 284 285 285 285 286 286 286 287 288 289 289 290 290 291 292 292 293 293 294 295 296 296 296 296 296 294 292 290 288 287
294 294 292 292 293 293 293 294 294 293 291 291 291 291 291 290 290 290 289 289 289 289 291 292 293 292 292 291 289 288 287 287 287 287 286 286 286 286 286 286 285 285 285 284 284 283 283 283 283 284 284 285 285 284 284 284 284 284 285 285 285 285 286 286 287 288 289 289 289 290 291 292 292 293 293 294 295 296 296 296 295 295 294 292 290 288
293 291 290 291 292 292 292 292 292 291 291 291 291 291 291 290 290 290 289 289 289 289 291 292 293 292 291 289 287 287 286 286 286 286 285 285 285 285 285 285 285 285 284 284 284 283 283 282 283 283 283 284 284 284 284 284 284 284 284 284 284 285 285 285 286 287 287 288 289 289 290 291 293 293 293 293 294 294 295 295 295 295 295 294 292 291
292 290 290 291 291 291 290 291 291 290 290 291 291 290 290 290 290 290 289 289 289 290 291 292 291 291 289 288 286 285 285 285 285 284 284 284 284 285 284 284 284 284 283 283 283 282 282 282 282 283 283 284 284 284 283 283 284 284 284 284 284 284 284 285 286 286 286 287 288 288 289 290 292 294 294 294 294 294 294 294 294 294 294 294 294 293
291 290 291 291 291 290 290 290 290 290 290 290 290 289 289 289 290 290 289 289 289 290 290 290 289 289 288 287 286 285 284 285 284 284 283 283 284 284 283 283 283 283 283 283 282 282 282 282 282 283 283 284 284 284 283 283 283 283 284 284 283 283 283 284 285 286 286 286 287 288 288 289 291 293 294 294 294 294 294 293 293 294 294 295 295 294
290 290 291 291 291 290 290 290 289 289 289 289 289 289 289 289 289 289 289 289 289 290 289 289 289 288 287 286 285 284 283 284 284 283 282 282 282 282 282 282 282 282 282 282 281 281 281 282 282 282 282 283 284 283 283 283 283 283 283 283 283 282 282 283 284 285 286 286 286 287 288 288 289 291 292 293 294 294 293 293 293 293 293 293 293 293
290 290 291 291 290 290 290 290 290 289 289 289 289 289 290 289 288 288 288 289 289 289 288 288 288 287 286 285 284 283 282 283 283 281 281 281 281 281 281 281 280 281 282 281 281 281 281 281 281 280 281 282 283 282 282 283 283 283 283 282 281 282 282 282 283 284 285 286 286 286 287 287 287 288 289 290 292 292 292 292 291 291 291 291 290 290
290 290 290 290 290 290 290 290 290 289 289 289 289 289 289 289 288 288 288 288 288 287 286 286 285 285 285 284 283 282 281 281 281 280 279 280 281 280 280 279 279 280 281 280 280 280 281 281 281 280 281 282 282 282 282 282 283 284 283 281 280 280 281 281 281 282 284 285 285 286 286 286 286 286 286 287 288 289 290 290 290 290 289 289 289 288
Wind_Speed
9 5 3 6 11 13 11 12 17 17 11 6 4 6 8 7 10 9 11 12 4 5 8 9 16 16 15 15 16 28 31 24 27 30 32 34 34 37 40 45 48 49 54 56 55 52 50 48 46 46 44 39 35 32 32 33 34 35 36 39 41 43 45 46 45 45 45 46 46 46 46 46 45 44 44 44 44 44 44 42 41 40 39 38 37 36
6 7 8 14 16 13 10 12 13 10 6 6 5 7 8 7 13 12 12 15 3 2 8 8 15 19 16 15 15 22 21 17 24 27 30 35 34 35 38 45 49 50 53 54 52 49 47 46 44 43 41 38 36 34 32 32 32 33 34 37 39 42 46 47 46 45 44 44 44 44 44 43 42 42 43 44 44 45 45 44 42 41 40 39 38 38
4 6 11 18 13 5 5 5 5 6 7 7 5 6 7 5 10 12 11 13 3 2 8 7 14 18 14 15 15 16 18 21 30 32 35 38 35 36 39 45 50 50 51 52 49 46 45 44 41 39 39 37 36 33 31 31 30 32 34 36 39 43 45 46 45 44 43 42 42 42 41 40 41 41 42 42 43 44 45 45 44 43 42 41 40 39
5 6 14 19 9 4 7 4 4 4 5 6 6 6 8 5 6 9 6 6 3 3 7 9 14 15 11 14 14 19 27 27 32 37 40 43 41 43 47 48 48 49 51 51 48 45 44 43 40 38 37 35 33 31 30 30 30 32 33 35 38 41 43 44 44 43 42 42 42 42 41 41 41 41 41 42 43 44 44 45 45 45 44 42 41 40
9 7 10 12 8 8 10 7 5 5 6 8 9 7 10 10 11 11 5 6 5 4 6 8 14 13 8 12 11 15 23 23 27 32 35 42 48 50 51 49 48 51 52 51 49 46 44 43 41 39 37 34 32 31 30 29 29 30 31 34 36 38 40 42 42 42 42 42 43 43 43 44 44 43 42 44 45 44 45 46 47 47 45 44 42 41
10 9 7 6 6 9 9 8 7 7 9 9 8 12 17 16 13 12 8 7 5 4 5 3 8 11 5 11 10 9 9 11 16 19 24 39 47 42 41 45 47 49 49 48 48 46 44 42 41 40 38 36 33 31 29 28 28 29 30 32 34 37 39 40 41 41 42 43 44 44 45 46 47 46 45 44 43 43 44 46 47 47 46 45 44 43
6 8 9 8 8 9 7 7 8 10 9 9 6 13 17 13 9 11 8 4 2 4 4 2 1 10 7 7 10 8 6 10 12 11 18 32 37 30 32 43 46 45 45 45 45 44 42 40 38 38 36 33 30 26 26 27 27 28 29 31 33 35 36 38 39 41 42 43 43 44 45 45 46 45 43 41 40 41 42 43 45 46 46 46 45 44
3 4 6 7 7 6 6 8 8 11 8 7 5 9 11 9 8 8 5 4 4 3 4 1 5 6 13 6 8 10 10 10 12 13 16 23 28 29 33 41 43 42 41 41 41 40 39 38 36 35 32 27 23 21 22 23 24 25 27 29 31 32 34 36 37 39 40 41 42 43 43 44 44 44 41 40 40 41 41 42 43 44 45 46 46 45
4 5 7 8 5 5 8 8 7 12 8 6 2 5 7 6 5 4 5 5 2 4 4 4 4 2 12 8 3 5 8 9 13 16 15 16 22 30 35 38 38 35 33 34 36 36 36 38 36 34 31 25 20 18 18 19 20 22 24 27 29 31 32 34 35 37 38 39 40 41 42 43 43 42 42 42 41 41 41 42 43 44 45 46 46 46
2 4 6 9 6 6 8 4 7 13 8 3 5 5 4 4 3 5 4 3 2 5 5 5 4 2 11 9 3 3 3 7 12 12 11 12 20 31 34 34 31 27 25 27 31 33 34 36 34 32 30 24 19 17 17 18 18 20 23 26 28 29 31 32 34 35 36 38 39 40 41 42 41 42 44 44 43 43 42 43 43 44 45 46 46 46
5 2 2 6 7 6 4 2 3 8 5 2 6 5 6 5 4 4 1 3 3 7 6 10 11 5 7 6 4 3 4 6 7 7 8 11 18 30 33 29 26 23 25 27 30 32 33 33 31 29 26 21 17 17 18 18 19 21 24 26 26 27 29 30 32 34 35 37 38 39 40 40 41 42 44 44 44 44 44 44 44 44 45 45 45 46
5 3 2 5 8 5 6 4 2 2 3 3 3 3 3 4 4 5 4 4 2 8 5 11 12 8 8 6 2 5 6 4 6 6 8 9 14 24 28 25 22 22 27 28 28 30 31 31 30 26 23 18 16 18 19 18 20 23 24 24 26 27 28 30 31 33 34 36 37 38 38 39 40 41 42 43 44 44 44 44 45 45 45 44 45 46
3 6 4 3 6 8 6 2 2 4 3 5 3 3 0 4 3 3 3 1 3 8 4 7 7 5 12 9 3 8 11 9 9 9 11 10 13 21 24 24 23 22 27 29 27 26 26 27 27 24 21 18 16 18 18 18 21 22 22 23 25 27 28 29 31 33 34 35 36 37 38 38 40 41 42 42 43 43 43 44 45 45 45 45 46 47
4 5 2 3 4 10 10 5 3 2 4 7 5 6 4 2 2 4 4 2 5 7 2 3 4 4 10 7 7 12 13 11 9 12 19 19 18 23 25 27 28 25 27 28 24 22 23 23 23 22 21 18 16 17 17 19 20 20 22 24 25 26 27 28 30 32 34 35 35 36 37 38 39 41 41 41 42 43 43 44 44 44 44 44 44 45
4 7 4 6 3 9 13 10 9 5 5 7 6 6 5 5 5 4 4 5 7 5 2 1 4 4 5 3 6 10 9 11 11 14 18 19 21 23 25 28 29 28 29 29 27 27 27 25 23 22 21 17 15 17 18 19 19 20 23 24 25 26 27 28 29 30 32 33 35 36 37 38 39 40 40 41 42 42 43 43 44 43 43 43 43 44
4 9 7 3 2 10 10 9 8 7 2 4 4 4 4 6 6 4 6 7 4 3 3 2 4 5 4 6 8 8 8 11 14 14 12 16 19 19 22 26 28 28 29 29 31 33 32 28 25 25 24 18 15 17 20 20 20 21 23 24 25 25 26 28 29 29 30 31 34 36 37 39 40 41 42 42 42 43 43 43 43 43 43 43 43 43
3 7 4 2 2 4 2 3 3 4 2 2 3 3 4 4 6 5 7 2 1 5 6 5 7 6 4 10 8 3 5 8 10 10 10 15 18 15 16 20 22 24 26 29 32 34 35 32 26 25 28 23 17 17 18 19 20 21 22 24 25 26 27 29 29 29 30 32 34 35 37 39 41 42 43 43 43 43 44 44 44 44 44 43 44 44
2 6 4 2 1 4 3 3 2 1 3 5 4 5 1 3 2 2 2 1 2 9 6 7 14 10 4 8 6 6 7 7 6 6 6 8 11 12 13 16 19 23 28 32 35 38 41 40 35 30 32 30 22 18 19 20 20 19 21 24 26 27 27 27 29 30 31 33 35 37 40 41 43 44 44 44 45 45 46 46 45 45 45 45 45 45
1 4 6 1 2 4 3 2 3 4 3 5 3 3 2 1 2 1 2 3 7 10 6 7 15 12 7 9 8 7 9 9 6 5 6 6 7 11 17 21 25 29 31 33 38 42 45 49 49 42 35 34 30 23 20 20 21 19 20 22 25 26 26 28 30 31 31 33 36 39 42 44 45 46 46 46 47 48 48 47 46 46 46 46 46 47
2 1 7 2 1 2 4 1 2 2 2 1 1 3 1 3 3 3 3 2 5 10 8 8 10 9 7 7 6 7 9 8 5 3 5 6 7 13 20 26 32 35 37 37 39 42 44 49 56 50 37 32 33 30 25 22 22 21 20 21 21 22 24 26 28 29 31 33 36 40 44 46 48 48 48 48 49 50 50 49 48 48 47 47 48 48
2 2 6 4 3 3 2 2 5 4 2 1 2 3 3 2 1 2 2 1 3 7 7 7 8 6 5 5 6 7 7 6 6 3 5 8 13 22 29 34 39 42 44 46 46 44 44 47 50 51 44 36 36 35 30 25 23 21 19 16 15 17 20 22 25 28 33 37 40 42 44 46 49 51 51 52 52 52 51 50 50 49 48 49 49 48
1 2 2 2 4 6 7 6 6 6 5 4 4 4 5 5 4 5 6 4 3 5 6 8 9 6 4 8 8 6 5 6 6 4 6 11 20 29 35 40 42 41 43 47 49 47 44 44 42 45 49 45 41 39 34 28 24 19 15 13 13 17 21 23 26 30 34 40 45 47 46 45 47 51 54 55 55 55 54 53 51 50 50 51 50 49
3 3 3 5 7 10 15 11 7 8 6 5 5 5 6 6 5 7 9 7 5 6 6 8 10 6 4 10 12 7 5 6 8 8 7 13 22 27 32 37 38 39 42 44 45 43 40 39 41 43 43 39 36 33 29 27 24 18 15 17 20 23 24 25 29 33 37 42 47 51 51 48 46 49 53 55 57 57 55 54 52 52 52 52 52 51
4 3 3 8 6 7 13 14 9 7 6 5 6 8 10 10 11 11 8 5 6 8 7 8 10 5 5 8 12 12 12 14 15 14 11 12 21 26 30 34 37 39 41 41 41 41 37 35 39 40 36 33 31 25 22 23 24 23 24 28 28 27 27 31 34 37 40 42 45 49 52 52 48 48 50 52 55 58 58 56 54 54 54 54 54 53
3 2 4 6 6 6 7 9 8 4 4 5 7 10 12 14 15 11 5 3 6 10 11 11 10 6 4 6 8 13 18 18 19 23 21 18 23 29 30 30 33 35 36 38 40 39 35 33 36 37 35 34 33 28 26 28 30 31 32 31 28 28 34 38 40 40 41 42 42 44 48 51 50 48 48 48 50 54 57 57 56 57 56 56 56 55
4 5 5 5 8 10 10 8 5 2 3 3 5 9 12 14 15 11 6 6 8 10 11 12 11 8 7 7 9 14 19 20 22 29 32 26 22 28 30 27 28 30 31 32 31 29 28 29 31 33 33 32 29 25 25 28 30 32 31 29 29 32 38 41 41 42 42 42 41 41 43 46 49 49 47 45 47 50 54 57 57 57 58 58 58 58
1 4 8 11 12 12 13 12 6 2 3 3 4 8 10 10 13 10 7 9 9 9 11 12 12 13 12 11 14 18 19 22 23 26 30 27 21 25 26 19 16 18 20 21 21 21 23 24 26 28 29 29 28 26 23 23 25 28 30 31 31 32 35 37 38 41 43 43 42 42 42 43 47 49 47 46 47 49 52 55 57 57 58 58 59 59
2 4 10 16 17 16 16 17 15 13 13 11 10 11 10 9 9 9 10 12 11 11 13 11 13 17 14 12 16 19 19 20 20 22 27 28 21 17 16 18 18 19 21 22 23 24 25 25 26 27 28 29 29 29 28 27 26 27 29 31 32 33 35 36 36 38 43 46 46 45 44 43 44 47 48 47 47 49 51 53 55 56 56 58 58 59
3 4 8 13 17 17 17 19 20 19 17 15 14 13 14 15 15 15 18 18 15 14 15 14 16 20 15 12 16 19 19 21 20 22 24 24 25 25 25 25 26 28 30 29 28 28 28 28 29 29 30 30 30 30 31 31 31 31 32 32 33 34 36 37 37 37 41 46 48 47 46 44 43 45 47 48 48 49 51 52 53 55 55 57 57 57
3 3 5 10 14 14 16 18 19 18 16 15 14 15 17 19 21 23 23 21 19 19 19 18 22 22 17 15 16 14 14 16 17 21 24 26 28 27 27 27 28 30 32 32 32 32 31 32 32 31 32 32 32 32 33 33 33 34 34 34 35 35 35 36 39 40 40 42 45 45 45 44 43 44 46 47 47 48 50 51 53 54 55 56 55 55
4 3 5 7 8 10 12 13 14 15 15 16 16 17 18 20 23 23 22 18 18 20 20 21 23 18 11 11 10 13 20 22 21 21 22 24 25 25 26 27 28 29 31 31 32 33 33 34 34 34 34 34 35 35 35 35 34 34 35 35 35 35 35 36 39 41 42 42 41 41 42 42 42 43 45 46 46 46 49 51 53 54 54 54 54 54
3 3 6 7 7 8 9 10 11 11 14 16 17 18 20 20 19 17 16 16 16 18 20 20 15 8 8 11 10 14 19 17 15 15 18 22 25 25 25 25 27 28 30 31 32 32 33 34 35 36 35 35 36 36 37 38 37 36 36 36 36 36 35 34 36 38 41 41 39 39 39 40 41 42 43 45 45 46 48 50 53 54 54 54 53 53
3 4 5 6 7 8 10 12 11 10 12 13 11 13 18 19 18 15 13 13 10 9 9 7 3 3 7 10 11 13 14 12 12 12 15 21 24 25 26 25 25 27 27 29 31 32 33 33 33 34 34 35 37 38 38 38 38 38 37 37 37 37 36 35 32 32 34 34 34 35 36 37 38 40 41 43 45 46 47 49 52 53 53 52 52 52
7 7 6 6 7 8 11 14 11 9 12 10 3 3 5 5 6 6 4 5 6 6 3 3 4 5 7 8 10 10 10 14 16 9 9 21 25 24 26 26 25 27 26 26 29 31 32 33 34 35 34 36 39 39 39 38 38 38 38 37 36 37 37 37 35 31 28 27 27 29 32 33 35 37 39 42 44 45 47 48 50 51 51 51 51 52
9 9 7 5 6 8 9 10 9 10 10 3 5 5 3 5 7 5 5 7 8 7 6 6 6 7 7 6 8 10 11 19 22 8 5 23 29 25 26 26 26 27 27 27 29 30 31 33 35 37 37 37 39 40 40 40 39 39 39 38 37 36 36 37 37 35 33 29 26 25 26 29 31 32 35 38 41 43 45 47 48 49 50 50 51 52
11 9 6 5 6 7 5 7 10 10 7 2 4 6 4 4 7 5 4 7 8 6 5 6 5 6 5 5 8 12 14 20 19 8 8 22 29 25 25 25 25 26 26 28 30 30 30 31 33 36 37 37 39 40 40 41 41 41 41 40 39 36 34 35 36 35 35 33 31 28 25 25 26 28 31 33 37 40 43 45 47 48 49 49 50 50
11 8 5 5 6 6 7 9 9 10 10 6 2 4 3 0 2 2 1 2 6 4 3 3 4 5 4 5 11 14 14 14 11 5 7 19 26 24 24 24 23 25 26 28 30 30 29 29 31 33 34 36 38 38 40 41 41 41 41 40 39 37 34 33 34 34 34 33 32 31 30 27 25 24 26 29 33 37 40 43 45 47 48 48 49 49
9 9 7 7 6 6 8 8 7 9 8 3 3 4 5 7 6 3 4 2 4 1 3 2 1 4 3 4 10 12 11 10 7 4 9 20 25 25 25 24 24 25 27 29 30 31 30 30 32 32 33 35 37 37 39 40 40 40 41 40 39 38 35 34 34 35 34 33 32 31 31 30 28 25 23 24 29 32 36 39 42 45 46 46 48 48
2 5 7 7 6 6 8 7 5 7 4 2 3 6 9 13 9 4 4 3 4 2 8 6 2 5 6 6 8 6 7 7 6 9 18 25 27 26 26 26 26 27 28 29 30 30 31 32 32 34 34 35 37 38 39 40 41 41 41 40 40 39 37 35 34 35 35 34 32 30 29 29 29 27 24 23 23 26 31 35 39 42 43 44 45 46
4 1 4 5 6 6 6 6 5 4 2 3 4 6 9 12 5 2 5 3 3 4 10 9 4 7 7 8 7 2 2 4 8 17 27 29 28 28 27 28 29 30 30 31 30 30 31 32 33 35 37 37 38 39 39 41 42 43 42 42 41 40 39 37 36 34 35 34 33 31 29 27 27 27 27 25 23 23 25 30 34 38 40 42 43 44
2 2 3 4 6 7 7 7 6 4 3 3 5 7 10 8 2 3 7 4 5 10 10 9 9 10 9 9 7 5 7 11 15 24 30 31 30 31 30 30 30 31 31 31 31 31 32 33 34 36 37 38 39 40 40 41 43 44 44 43 43 41 39 39 38 36 34 34 33 32 30 29 28 27 27 26 25 23 23 26 30 34 37 39 41 42
2 2 2 4 5 5 5 5 6 5 2 2 3 9 8 3 2 6 7 7 11 16 15 12 13 13 12 13 12 12 15 17 20 24 27 30 31 31 32 32 31 31 31 31 31 32 33 34 36 37 38 38 39 40 41 42 44 45 45 45 44 42 40 40 41 39 37 35 34 33 32 31 30 29 28 27 25 24 23 24 27 31 34 36 38 40
3 2 3 3 3 2 3 4 7 6 2 4 3 6 4 0 6 10 11 11 14 17 19 18 16 14 14 15 16 16 17 20 22 24 26 29 30 30 31 31 31 31 31 32 32 32 33 34 37 38 39 40 40 40 41 42 44 46 46 46 45 44 42 42 43 42 41 38 35 33 33 32 32 31 30 29 27 26 25 24 25 27 30 33 36 38
4 4 4 3 3 4 5 5 5 5 2 6 7 5 7 13 17 16 12 12 17 21 20 18 17 17 16 16 16 17 19 21 23 25 26 28 30 31 31 31 30 31 31 33 34 33 33 35 38 40 41 42 42 42 43 43 45 46 47 47 46 45 45 44 44 44 43 41 38 35 34 33 33 34 33 32 30 28 27 26 26 26 27 30 34 37
4 5 5 4 5 5 5 6 7 6 11 21 23 21 21 23 23 20 17 17 23 26 21 17 18 20 18 16 16 18 20 22 24 25 27 28 29 30 31 31 32 33 33 34 34 34 34 37 40 42 44 44 44 44 45 46 46 48 49 48 47 46 46 44 44 44 44 43 41 38 36 34 34 34 34 34 34 32 30 29 28 28 28 29 32 36
5 6 3 1 6 7 6 10 13 12 17 28 33 31 27 25 25 26 26 24 26 26 21 19 21 21 20 18 18 19 21 23 24 26 28 29 30 31 32 32 33 33 34 36 37 37 38 40 43 45 47 48 47 47 48 49 49 51 52 51 48 47 45 43 44 45 45 44 43 40 39 37 36 35 35 35 36 36 34 33 31 31 31 31 32 35
6 9 6 4 8 9 8 10 11 13 19 26 28 27 27 28 31 32 31 30 27 23 21 21 22 21 21 20 20 20 22 23 25 27 28 29 30 32 33 34 35 35 35 37 38 39 41 43 46 48 51 52 53 52 52 53 52 53 54 54 51 48 46 46 47 47 46 46 44 43 42 40 39 37 36 36 37 37 38 37 36 35 34 34 34 35
5 5 6 8 10 9 9 12 15 19 25 26 26 28 29 33 35 33 30 28 25 22 22 23 23 22 22 22 22 22 24 27 28 28 29 30 32 34 35 36 36 36 37 38 39 40 42 45 48 50 53 55 57 57 57 58 57 56 55 55 54 51 49 49 49 49 49 48 46 45 44 44 42 40 38 38 38 39 40 40 40 39 39 38 37 37
8 5 5 6 7 8 10 12 15 18 20 23 29 31 31 32 32 28 24 23 23 23 24 25 25 24 24 25 25 24 26 30 31 29 28 31 33 35 36 36 37 38 40 41 41 42 44 46 49 51 54 57 59 60 61 61 60 59 57 57 56 54 54 53 51 51 51 50 48 46 46 46 46 44 42 41 40 40 41 41 42 42 42 41 40 40
8 7 7 6 6 8 9 12 15 13 10 15 24 30 31 30 26 22 22 22 23 23 24 25 27 28 28 28 26 26 27 30 31 29 29 32 35 36 37 37 39 41 43 43 45 46 48 50 51 52 55 59 61 61 63 63 62 61 59 58 57 56 56 55 53 52 53 51 49 48 46 46 47 47 45 44 43 42 41 41 42 42 42 42 42 41
12 11 11 9 8 11 16 22 23 15 9 16 28 32 32 29 25 22 22 22 22 23 23 25 28 30 30 30 28 27 28 30 31 30 32 35 37 37 38 39 40 43 45 46 47 49 51 53 54 56 59 62 63 63 64 65 65 63 61 59 56 55 54 54 53 53 53 52 50 47 45 45 45 45 45 45 44 43 42 41 41 42 42 42 42 42
Wind_Direction
169 166 159 192 221 224 208 194 212 229 238 251 246 246 252 258 263 250 257 263 246 279 262 240 261 265 263 264 262 270 274 275 275 273 270 269 268 268 270 271 272 272 275 281 283 282 280 278 278 277 276 275 273 270 264 260 257 254 250 249 247 246 245 243 241 240 237 236 233 229 229 229 230 230 231 231 231 231 231 231 232 232 232 232 232 233
171 196 208 213 224 223 211 210 221 238 260 262 246 261 260 245 263 258 259 270 240 229 260 243 268 270 262 264 262 266 271 265 264 268 270 270 269 268 268 270 272 273 276 280 282 283 281 278 276 275 274 273 273 272 267 262 259 254 248 246 245 245 244 243 242 241 240 239 237 235 233 231 230 230 231 231 230 230 229 230 231 231 232 232 232 234
210 223 228 226 234 243 241 217 203 228 239 245 241 268 269 245 272 269 250 266 261 194 272 270 268 267 262 262 258 256 257 254 256 260 266 270 271 269 266 268 271 273 276 278 280 281 281 280 278 275 274 274 274 273 270 265 259 253 248 246 244 244 244 244 243 241 241 241 240 239 237 233 230 231 231 232 232 230 230 230 230 231 231 232 233 234
225 234 234 233 236 243 257 231 158 234 236 221 220 242 262 247 264 267 245 279 294 212 272 288 277 271 259 258 254 246 248 252 256 258 262 265 266 266 265 265 267 270 273 276 278 280 280 280 278 276 276 276 274 271 267 262 256 251 250 248 245 245 245 244 243 242 241 240 238 236 233 231 231 231 232 231 232 231 231 231 231 231 231 231 233 233
238 236 227 224 215 210 238 240 201 251 257 223 209 216 250 245 239 251 275 338 325 276 280 294 292 284 225 229 249 244 245 249 253 256 260 262 261 262 264 265 264 266 270 273 277 280 280 279 278 277 277 276 274 271 268 263 259 255 253 251 248 246 245 243 242 240 237 235 233 231 228 227 227 228 229 230 230 230 230 231 231 231 231 231 232 233
251 247 217 185 199 205 217 236 210 213 251 253 211 206 236 246 248 260 292 341 342 308 305 339 306 296 194 192 235 247 243 246 246 247 252 257 259 259 263 266 265 266 270 273 276 280 281 279 278 278 277 276 276 275 272 265 260 257 254 252 249 247 244 242 241 237 235 234 232 231 228 227 226 225 227 229 230 230 230 231 231 231 231 231 232 233
251 238 213 190 202 198 198 242 221 196 236 272 226 205 227 243 255 261 274 311 282 261 297 75 209 287 281 195 216 233 236 244 245 242 244 251 257 260 262 266 268 270 273 275 278 281 283 282 280 280 279 280 282 280 273 263 256 253 252 250 249 247 245 242 239 236 234 233 232 233 233 233 231 230 231 232 233 233 234 234 233 233 232 231 232 233
201 216 215 203 196 170 184 241 220 181 206 267 234 194 207 222 235 237 224 223 236 276 297 205 147 272 289 252 192 205 218 241 252 248 247 250 257 263 263 266 271 275 278 279 281 283 284 284 283 284 284 284 283 278 269 260 253 250 249 249 248 246 244 241 239 237 235 234 233 233 234 235 235 236 237 237 236 235 236 236 236 235 234 233 233 233
155 192 211 189 167 174 206 226 185 159 195 256 178 154 174 189 197 160 160 199 258 339 295 235 143 226 280 277 144 191 219 240 252 246 249 254 259 263 264 267 273 279 284 284 283 284 285 286 287 287 286 283 278 272 264 257 250 249 248 247 246 244 243 240 238 237 236 235 235 235 235 235 236 237 237 238 239 239 238 237 237 236 236 235 234 234
185 200 197 163 159 211 217 218 161 164 200 223 112 94 81 87 87 101 142 156 66 311 263 201 168 208 278 282 84 88 232 235 249 251 254 260 263 264 265 269 274 278 282 282 283 285 287 289 290 289 286 281 274 264 255 250 245 244 244 242 242 242 241 240 238 237 236 235 234 234 235 236 236 235 235 237 238 239 239 239 238 237 236 236 235 235
238 147 128 173 197 204 161 90 159 174 187 117 94 53 31 29 32 61 59 84 79 282 244 181 183 182 275 280 136 170 232 217 239 262 269 268 264 264 264 266 272 277 278 278 283 288 290 291 291 289 286 280 269 254 243 240 240 241 242 241 241 241 241 240 239 237 236 236 235 235 235 236 236 236 236 237 237 237 238 238 239 238 238 237 236 236
246 189 193 204 197 159 106 85 23 60 114 106 87 61 19 332 3 32 352 53 142 262 233 181 182 175 233 259 167 259 273 230 222 238 255 259 261 267 268 266 269 276 279 284 290 294 295 295 296 293 288 279 261 246 239 238 241 242 242 241 240 240 240 239 238 237 237 236 236 236 236 236 236 236 236 237 238 239 239 239 239 238 238 238 237 236
261 220 211 172 187 176 148 125 351 360 92 121 111 124 162 308 343 353 310 97 205 256 241 177 170 196 244 255 247 266 270 251 229 224 238 243 256 273 278 275 272 274 284 296 305 308 310 311 308 297 291 284 259 241 239 243 247 245 242 242 241 241 240 239 238 237 237 236 236 236 235 235 235 236 238 239 240 241 241 241 241 240 239 238 237 236
288 275 168 126 232 195 166 160 222 262 167 157 153 158 173 215 243 260 264 271 261 267 279 167 174 250 273 273 234 237 252 263 259 242 242 243 254 272 281 284 285 283 287 299 312 325 331 330 319 299 289 284 259 239 240 247 250 249 244 241 241 241 241 241 240 239 238 237 237 237 237 237 236 236 237 239 240 241 242 243 243 243 243 242 240 239
253 290 200 169 223 179 176 199 196 149 155 185 162 145 178 189 190 215 226 252 265 273 320 205 186 224 267 281 238 236 264 298 292 265 254 255 261 272 278 281 285 284 283 293 309 322 326 326 322 304 288 277 255 240 241 247 252 252 247 242 241 241 239 238 239 238 239 239 238 238 238 238 238 238 239 240 241 242 243 244 244 245 245 245 245 244
220 269 240 207 155 154 177 218 181 115 116 219 130 120 224 204 177 215 237 231 243 286 288 225 221 233 243 276 272 262 282 289 281 276 280 282 278 281 284 284 288 293 296 306 319 328 329 328 323 306 291 274 250 240 242 248 255 256 251 246 243 242 242 241 239 238 238 238 239 239 240 239 239 239 239 240 241 241 243 244 245 246 246 247 247 247
237 272 262 27 35 158 193 281 189 142 207 203 129 185 233 163 154 220 261 251 111 257 248 228 257 274 291 288 290 332 319 290 288 293 289 291 295 300 309 311 314 321 327 331 333 336 336 336 332 317 302 284 255 244 249 256 261 262 260 254 247 243 244 242 240 238 237 237 238 239 239 240 240 240 239 239 239 241 242 244 245 246 247 247 247 247
251 291 281 119 241 270 320 338 314 6 117 131 176 227 249 65 118 174 257 324 238 248 243 236 258 271 286 280 305 19 342 302 305 314 305 313 317 318 334 339 333 336 340 338 337 336 335 334 333 328 317 300 274 253 255 259 260 261 262 258 252 247 245 245 242 240 239 237 238 237 238 239 240 240 240 240 241 243 243 244 245 246 246 246 246 247
82 302 295 123 170 288 349 355 305 347 77 138 203 260 99 164 254 154 177 227 236 247 249 230 249 262 253 253 277 302 287 275 283 323 335 339 327 320 331 332 328 331 335 336 336 333 331 328 325 325 322 310 293 272 260 261 260 259 260 257 254 251 250 251 250 247 246 244 243 242 240 240 241 242 242 242 243 243 244 244 245 246 246 246 247 247
63 249 279 310 106 340 11 77 207 292 341 83 297 321 60 177 201 189 190 196 228 248 255 233 235 249 248 243 256 257 247 247 260 323 325 298 294 313 323 324 324 326 326 328 330 327 323 321 319 318 317 311 302 287 272 267 263 257 257 256 254 252 250 252 255 256 257 257 254 250 245 243 243 243 243 244 244 244 244 244 245 246 247 247 247 248
77 216 261 303 327 309 302 195 190 204 205 169 257 268 265 229 207 249 236 186 231 253 259 252 242 244 262 266 255 253 245 217 204 230 277 290 310 318 319 318 318 316 313 314 317 317 317 316 315 313 309 307 305 295 277 268 264 257 255 255 258 262 260 262 266 269 271 269 263 257 252 249 247 245 245 244 244 245 245 246 247 247 247 248 248 248
151 207 219 289 294 278 265 224 178 175 172 174 208 228 240 239 249 273 258 223 222 253 254 261 261 251 272 285 265 234 216 200 202 249 298 311 314 313 311 308 306 305 304 304 305 307 314 316 312 307 305 305 305 295 279 267 264 255 248 251 262 269 269 269 274 278 280 277 269 261 256 254 253 250 249 247 246 246 245 246 246 247 247 248 248 248
145 127 192 244 245 250 263 254 206 198 212 217 220 223 236 232 219 239 248 239 234 246 246 256 262 242 219 268 272 252 233 246 252 262 282 294 297 299 298 296 297 300 301 301 300 305 314 316 309 305 307 311 309 294 275 265 263 256 256 266 267 266 268 274 280 282 281 278 274 266 258 254 254 254 253 252 250 249 248 247 247 247 248 248 248 248
124 104 225 251 252 246 262 268 256 230 223 240 236 218 220 226 224 228 237 243 246 246 246 255 257 231 193 251 276 283 286 286 280 271 264 276 288 290 290 292 295 299 300 300 301 307 312 310 306 308 314 321 321 310 290 280 275 269 271 273 270 271 280 287 287 284 281 278 277 271 262 255 254 256 256 256 256 254 251 250 248 248 248 248 248 248
188 196 215 252 275 267 262 272 274 249 199 225 240 226 225 229 233 240 242 243 250 239 237 252 256 238 227 260 283 290 290 290 287 284 283 286 291 290 288 291 295 296 298 300 303 307 309 306 308 315 321 321 319 316 306 298 291 281 273 269 272 283 291 291 287 286 285 282 278 273 265 259 256 257 259 260 262 260 256 252 250 249 249 249 249 248
218 223 207 238 260 259 263 262 253 226 193 223 248 235 232 227 226 236 243 237 246 234 226 244 258 251 252 270 282 283 285 288 288 289 289 288 288 290 292 294 294 297 303 309 315 316 313 311 311 316 323 324 323 319 309 300 296 294 288 284 288 293 291 288 288 291 292 288 283 276 270 263 258 258 261 266 268 265 259 254 251 250 250 250 249 249
228 238 226 236 244 246 259 263 260 288 253 242 256 238 231 226 221 225 233 236 250 255 243 243 254 259 256 260 269 271 275 281 285 288 289 289 290 293 302 316 321 321 328 337 345 343 335 328 322 321 327 333 336 334 327 314 304 302 300 297 296 296 294 293 296 299 299 294 289 283 278 274 267 261 263 269 271 267 260 254 252 251 251 251 250 249
211 259 237 241 247 247 259 269 273 279 269 259 263 257 254 256 243 236 243 246 253 264 261 251 252 258 254 247 258 266 270 274 277 281 289 302 322 338 359 23 24 14 11 9 6 3 356 349 343 339 338 338 338 337 336 334 328 321 316 309 306 306 304 303 302 300 298 296 293 289 287 287 280 270 266 268 269 266 261 255 252 252 252 251 250 249
207 263 243 245 255 253 258 265 264 265 266 262 261 260 262 265 262 256 252 251 250 255 263 266 262 262 261 252 251 257 265 270 280 297 313 340 12 32 38 34 26 18 15 12 8 5 2 357 353 350 347 345 343 339 337 335 333 332 327 321 317 313 309 307 303 296 294 293 292 292 293 291 285 276 268 266 266 266 262 257 253 252 252 251 251 250
235 264 255 257 265 263 261 263 263 265 267 267 264 260 259 260 259 258 258 258 258 259 264 268 265 264 267 271 270 282 305 318 336 354 10 24 31 34 31 25 20 15 10 8 6 4 2 360 358 355 354 354 353 351 347 341 336 335 331 327 323 316 310 304 296 290 288 286 286 290 293 291 285 278 271 268 268 266 263 258 252 250 251 251 251 250
262 302 321 303 290 280 273 268 267 268 269 270 268 264 263 263 260 261 264 267 268 266 265 265 263 266 287 308 323 5 12 10 13 22 30 31 25 25 24 19 14 9 6 5 4 3 3 1 359 357 357 358 359 358 355 350 346 343 340 337 332 325 317 305 292 288 287 284 284 288 292 290 287 282 276 273 270 267 264 259 253 250 250 250 250 249
289 296 316 310 288 279 279 272 269 276 277 274 271 268 266 265 263 262 260 259 263 267 269 270 270 285 345 347 356 19 20 15 14 19 25 23 20 20 18 13 9 6 4 3 1 1 1 360 358 357 355 355 355 355 353 350 347 346 346 345 341 337 332 320 303 293 288 287 290 292 291 290 288 285 281 277 273 269 265 259 253 250 249 249 250 249
250 271 287 287 280 279 279 280 286 296 286 273 268 266 261 261 264 267 266 267 278 292 284 279 300 354 359 360 1 4 7 4 355 5 21 20 15 14 10 6 3 1 0 2 0 358 356 355 354 352 350 347 346 346 346 345 342 341 342 343 342 343 344 340 328 310 296 293 296 297 296 293 290 288 285 281 277 272 265 259 254 251 250 250 250 250
245 259 266 265 276 278 281 291 295 284 271 266 297 328 289 286 297 292 301 329 351 10 42 103 81 23 11 22 10 349 344 345 334 328 26 24 14 8 3 358 355 355 356 357 356 353 350 347 346 345 344 342 341 341 342 341 339 336 337 337 339 342 346 348 347 340 326 313 307 304 301 298 294 291 288 282 277 272 266 261 256 253 251 251 250 250
252 255 255 253 265 270 281 290 274 257 258 245 71 44 47 67 51 59 76 47 20 19 46 68 64 35 20 17 2 341 328 339 338 312 7 14 8 1 355 351 348 349 349 348 348 347 345 342 340 340 339 338 338 339 339 340 339 336 335 336 336 338 343 345 347 351 350 343 335 324 312 303 298 293 288 282 276 271 267 262 258 254 252 252 251 251
237 249 253 245 255 264 266 255 250 266 278 204 88 36 30 49 33 40 81 57 28 13 26 38 37 26 7 339 346 343 327 334 338 298 294 347 355 353 347 344 343 343 341 341 340 340 340 339 337 336 336 335 336 337 337 338 338 336 336 337 336 337 340 341 341 345 349 351 352 349 338 323 308 297 289 282 276 271 267 262 258 255 254 252 251 249
224 237 247 243 242 244 254 252 257 287 293 253 251 359 19 47 350 342 257 72 53 19 350 27 13 352 346 323 327 331 324 324 327 281 293 334 341 340 338 336 335 334 333 333 334 335 335 334 332 333 334 333 334 336 335 335 335 335 334 336 337 336 336 337 337 339 342 345 349 351 350 345 332 316 300 286 277 272 268 264 260 257 254 252 250 248
216 221 226 242 236 230 256 265 264 278 282 254 253 263 239 245 243 215 236 216 93 50 248 157 7 300 288 297 308 320 327 323 313 297 324 332 332 332 331 328 327 327 326 328 331 331 330 330 331 332 332 332 333 334 334 332 332 332 332 333 335 336 335 333 331 331 334 337 340 344 347 348 343 335 319 299 286 278 272 268 263 259 256 253 251 249
245 230 220 240 249 243 258 264 264 270 253 164 235 242 248 264 255 192 227 222 122 209 230 195 204 249 232 258 282 303 335 332 314 312 321 325 325 325 324 321 321 322 322 325 327 328 327 328 328 329 330 331 332 332 332 331 329 328 329 330 332 333 334 332 326 325 326 328 332 335 339 342 342 339 333 321 307 292 281 274 267 262 258 254 252 250
2 306 204 228 253 256 261 263 271 276 206 188 246 256 268 278 272 205 266 256 120 232 224 199 234 263 243 253 264 257 317 299 293 306 314 318 318 319 320 318 319 319 320 322 325 325 326 326 327 328 329 330 330 330 330 329 327 326 326 327 328 329 332 330 325 322 320 320 323 326 328 332 334 335 335 333 325 309 292 279 271 264 259 255 252 250
312 259 218 222 239 248 254 261 271 264 212 218 258 277 295 309 314 248 272 302 329 291 254 219 246 271 264 254 247 231 254 276 290 300 309 314 314 316 318 316 316 317 318 320 323 324 325 325 326 326 326 327 328 329 330 329 326 324 323 323 323 324 326 326 323 320 317 315 317 319 320 322 324 325 328 329 326 318 303 287 274 267 262 258 253 250
244 244 239 215 222 241 242 250 276 274 182 130 285 298 319 346 220 256 289 313 307 295 282 259 249 253 255 250 244 248 265 284 294 298 305 311 312 312 314 314 314 314 315 317 320 322 323 322 322 323 323 325 327 328 329 329 325 323 322 320 320 321 321 320 320 319 316 313 313 314 314 315 316 315 316 317 318 315 308 296 282 271 265 259 255 251
235 245 267 225 215 270 263 251 269 264 185 83 352 322 346 242 252 278 297 303 297 289 282 269 254 248 249 247 248 259 275 290 297 299 304 307 307 307 308 309 311 311 313 316 317 319 320 319 320 321 321 322 325 326 327 327 324 322 321 319 319 320 318 316 316 316 314 311 310 309 309 310 309 308 307 307 309 307 304 298 288 277 269 262 257 253
241 227 251 239 225 249 247 241 236 217 241 325 318 287 280 282 281 284 288 296 301 295 280 265 259 258 251 244 252 269 282 290 295 299 301 301 302 304 304 306 308 308 310 313 314 316 317 316 317 318 318 320 322 323 324 325 323 321 319 318 319 320 318 316 314 312 311 310 308 306 304 303 303 301 300 301 301 299 296 292 287 280 273 266 259 254
229 215 228 245 248 230 208 233 253 265 293 298 291 280 280 283 284 285 285 287 293 292 277 257 259 261 253 249 261 274 282 288 293 296 297 297 298 300 300 302 305 307 309 311 312 313 314 314 315 315 315 316 319 321 322 323 322 319 318 318 319 318 316 314 311 308 307 307 306 305 301 298 295 295 295 295 295 293 290 287 282 277 273 267 260 255
253 244 230 248 263 259 245 250 264 278 280 277 276 274 274 276 280 285 286 286 288 286 272 258 260 262 258 261 271 276 281 287 291 292 294 295 295 297 298 299 302 305 307 309 311 312 313 313 313 314 314 315 317 319 320 320 319 319 317 317 318 316 313 310 307 305 304 302 302 302 298 294 290 289 289 290 290 288 286 283 279 274 270 266 261 256
264 244 231 239 256 263 262 253 252 257 258 260 266 270 271 275 281 284 285 286 284 275 265 263 265 263 264 270 276 279 284 287 289 291 293 294 294 295 296 298 301 304 305 307 310 311 312 312 312 313 314 314 315 317 318 317 317 317 316 316 315 313 310 307 304 302 300 298 297 296 293 290 287 285 285 285 284 284 282 279 276 271 266 263 260 257
258 232 215 236 246 246 254 262 262 261 261 264 268 270 272 276 280 283 285 281 271 260 261 267 266 264 269 277 280 282 286 289 291 293 294 293 293 294 295 298 300 302 305 307 308 309 310 310 311 313 313 313 314 315 315 315 315 315 314 313 312 309 306 305 302 299 297 294 292 291 288 286 283 281 281 281 280 279 278 276 274 271 268 266 263 260
244 242 215 225 246 253 259 268 269 268 269 268 268 271 276 278 280 284 284 270 254 253 261 265 265 268 274 280 282 283 287 291 294 295 293 292 293 294 296 298 301 303 305 307 308 308 308 309 310 311 311 312 313 313 312 312 312 312 312 310 307 305 304 302 300 297 294 292 290 288 285 283 280 277 277 278 278 277 276 275 274 273 271 269 266 262
230 251 250 243 252 258 259 259 259 263 271 270 272 278 283 284 285 286 277 262 253 255 260 263 268 274 276 279 284 289 291 294 296 296 294 294 295 297 299 301 303 305 307 308 307 308 308 309 309 309 309 310 311 310 309 309 308 308 308 306 304 303 302 301 299 296 292 290 288 286 283 281 279 277 275 275 276 277 276 274 272 271 269 267 264 261
226 239 247 249 252 254 258 261 260 261 268 274 279 284 286 288 290 284 272 263 260 262 266 269 274 278 280 283 289 293 294 296 298 298 297 297 298 299 301 302 302 304 305 305 306 306 307 308 308 308 308 309 309 307 307 306 306 306 305 304 302 302 301 300 299 295 291 288 286 284 281 279 278 277 276 275 274 275 275 273 271 268 265 263 261 259